TimeCST,TemperatureF,Dew PointF,Humidity,Sea Level PressureIn,VisibilityMPH,Wind Direction,Wind SpeedMPH,Gust SpeedMPH,PrecipitationIn,Events,Conditions,WindDirDegrees,DateUTC
12:12 AM,26.6,19.4,74,29.95,10.0,South,20.7,27.6,N/A,,Clear,180,2013-01-07 06:12:00
12:33 AM,24.8,19.4,80,29.95,10.0,South,20.7,-,N/A,,Clear,180,2013-01-07 06:33:00
12:53 AM,26.6,19.4,74,29.94,10.0,South,20.7,26.5,N/A,,Clear,180,2013-01-07 06:53:00
1:12 AM,26.6,19.4,74,29.92,10.0,South,25.3,32.2,N/A,,Clear,190,2013-01-07 07:12:00
1:33 AM,28.4,19.4,69,29.93,10.0,South,20.7,31.1,N/A,,Clear,190,2013-01-07 07:33:00
1:53 AM,26.6,19.4,74,29.93,10.0,South,18.4,26.5,N/A,,Clear,190,2013-01-07 07:53:00
2:33 AM,26.6,19.4,74,29.94,10.0,South,18.4,-,N/A,,Clear,190,2013-01-07 08:33:00
2:53 AM,24.8,19.4,80,29.94,10.0,South,12.7,-,N/A,,Clear,190,2013-01-07 08:53:00
3:12 AM,24.8,19.4,80,29.92,10.0,South,15.0,-,N/A,,Clear,190,2013-01-07 09:12:00
3:33 AM,26.6,19.4,74,29.91,10.0,South,12.7,-,N/A,,Clear,190,2013-01-07 09:33:00
3:53 AM,26.6,19.4,74,29.92,10.0,South,12.7,-,N/A,,Clear,190,2013-01-07 09:53:00
4:12 AM,26.6,19.4,74,29.91,10.0,South,5.8,-,N/A,,Clear,190,2013-01-07 10:12:00
4:33 AM,28.4,21.2,74,29.90,10.0,SSW,16.1,-,N/A,,Clear,210,2013-01-07 10:33:00
4:52 AM,32.0,23.0,69,29.89,10.0,SSW,18.4,24.2,N/A,,Clear,210,2013-01-07 10:52:00
5:13 AM,32.0,23.0,69,29.89,10.0,SW,16.1,24.2,N/A,,Clear,220,2013-01-07 11:13:00
5:33 AM,32.0,23.0,69,29.90,10.0,SW,13.8,23.0,N/A,,Clear,230,2013-01-07 11:33:00
6:13 AM,32.0,23.0,69,29.91,10.0,SSW,15.0,19.6,N/A,,Clear,210,2013-01-07 12:13:00
6:33 AM,32.0,23.0,69,29.91,10.0,SW,16.1,23.0,N/A,,Clear,220,2013-01-07 12:33:00
6:52 AM,30.2,23.0,75,29.88,10.0,SW,21.9,-,N/A,,Clear,220,2013-01-07 12:52:00
7:13 AM,30.2,23.0,75,29.90,10.0,SW,17.3,-,N/A,,Clear,230,2013-01-07 13:13:00
7:33 AM,30.2,23.0,75,29.91,10.0,SW,18.4,23.0,N/A,,Clear,220,2013-01-07 13:33:00
7:52 AM,30.2,21.2,69,29.90,10.0,SW,17.3,-,N/A,,Clear,230,2013-01-07 13:52:00
8:13 AM,28.4,21.2,74,29.91,10.0,SW,15.0,-,N/A,,Clear,220,2013-01-07 14:13:00
8:33 AM,28.4,21.2,74,29.92,10.0,SW,12.7,-,N/A,,Clear,220,2013-01-07 14:33:00
8:52 AM,28.4,21.2,74,29.94,10.0,SW,13.8,19.6,N/A,,Clear,230,2013-01-07 14:52:00
9:13 AM,28.4,21.2,74,29.93,10.0,SW,15.0,19.6,N/A,,Clear,220,2013-01-07 15:13:00
9:33 AM,28.4,21.2,74,29.94,10.0,SW,15.0,-,N/A,,Clear,220,2013-01-07 15:33:00
9:53 AM,28.4,21.2,74,29.94,10.0,SW,16.1,-,N/A,,Clear,230,2013-01-07 15:53:00
10:13 AM,30.2,23.0,75,29.96,10.0,WSW,13.8,-,N/A,,Clear,250,2013-01-07 16:13:00
10:33 AM,30.2,23.0,75,29.97,10.0,WSW,12.7,-,N/A,,Clear,240,2013-01-07 16:33:00
10:53 AM,30.2,23.0,75,29.95,10.0,WSW,12.7,-,N/A,,Clear,240,2013-01-07 16:53:00
11:13 AM,30.2,23.0,75,29.95,10.0,WSW,11.5,-,N/A,,Clear,240,2013-01-07 17:13:00
11:33 AM,30.2,23.0,75,29.95,10.0,WSW,11.5,17.3,N/A,,Clear,240,2013-01-07 17:33:00
11:53 AM,32.0,23.0,69,29.94,10.0,WSW,13.8,-,N/A,,Clear,240,2013-01-07 17:53:00
12:33 PM,32.0,24.8,75,29.92,10.0,West,11.5,-,N/A,,Clear,260,2013-01-07 18:33:00
12:51 PM,32.0,24.8,75,29.91,10.0,West,10.4,-,N/A,,Clear,270,2013-01-07 18:51:00
1:13 PM,32.0,26.6,80,29.91,10.0,West,10.4,-,N/A,,Clear,270,2013-01-07 19:13:00
1:33 PM,32.0,26.6,80,29.91,10.0,West,10.4,-,N/A,,Clear,260,2013-01-07 19:33:00
1:53 PM,33.8,26.6,75,29.92,10.0,West,8.1,-,N/A,,Clear,260,2013-01-07 19:53:00
2:13 PM,33.8,26.6,75,29.92,10.0,West,8.1,-,N/A,,Clear,260,2013-01-07 20:13:00
2:33 PM,33.8,26.6,75,29.92,10.0,West,8.1,-,N/A,,Clear,270,2013-01-07 20:33:00
2:53 PM,33.8,26.6,75,29.93,10.0,West,9.2,-,N/A,,Clear,260,2013-01-07 20:53:00
3:13 PM,33.8,26.6,75,29.93,10.0,WSW,5.8,-,N/A,,Clear,240,2013-01-07 21:13:00
3:33 PM,33.8,24.8,70,29.94,10.0,WSW,8.1,-,N/A,,Clear,250,2013-01-07 21:33:00
3:53 PM,32.0,26.6,80,29.94,10.0,WSW,8.1,-,N/A,,Clear,240,2013-01-07 21:53:00
4:12 PM,32.0,24.8,75,29.95,10.0,SW,5.8,-,N/A,,Clear,220,2013-01-07 22:12:00
4:33 PM,32.0,26.6,80,29.96,10.0,SW,5.8,-,N/A,,Clear,220,2013-01-07 22:33:00
5:12 PM,30.2,23.0,75,29.96,10.0,WSW,6.9,-,N/A,,Clear,240,2013-01-07 23:12:00
5:33 PM,30.2,23.0,75,29.96,10.0,SW,5.8,-,N/A,,Clear,220,2013-01-07 23:33:00
5:53 PM,28.4,23.0,80,29.96,10.0,WSW,6.9,-,N/A,,Clear,240,2013-01-07 23:53:00
6:12 PM,28.4,23.0,80,29.97,10.0,WSW,6.9,-,N/A,,Clear,240,2013-01-08 00:12:00
6:33 PM,26.6,21.2,80,29.97,10.0,West,4.6,-,N/A,,Clear,270,2013-01-08 00:33:00
6:52 PM,26.6,21.2,80,29.97,10.0,SW,4.6,-,N/A,,Clear,230,2013-01-08 00:52:00
7:13 PM,24.8,19.4,80,29.97,10.0,WSW,4.6,-,N/A,,Clear,250,2013-01-08 01:13:00
7:33 PM,26.6,21.2,80,29.97,10.0,WSW,6.9,-,N/A,,Clear,240,2013-01-08 01:33:00
7:53 PM,24.8,21.2,86,29.97,10.0,WSW,3.5,-,N/A,,Clear,240,2013-01-08 01:53:00
8:13 PM,23.0,19.4,86,29.97,10.0,SW,4.6,-,N/A,,Clear,230,2013-01-08 02:13:00
8:33 PM,24.8,19.4,80,29.97,10.0,WSW,4.6,-,N/A,,Clear,250,2013-01-08 02:33:00
8:53 PM,26.6,21.2,80,29.97,10.0,SW,5.8,-,N/A,,Clear,230,2013-01-08 02:53:00
9:13 PM,24.8,19.4,80,29.96,10.0,West,5.8,-,N/A,,Clear,260,2013-01-08 03:13:00
9:33 PM,23.0,19.4,86,29.96,10.0,WSW,3.5,-,N/A,,Clear,240,2013-01-08 03:33:00
9:53 PM,24.8,19.4,80,29.96,10.0,SW,4.6,-,N/A,,Clear,220,2013-01-08 03:53:00
10:13 PM,23.0,19.4,86,29.96,10.0,SW,5.8,-,N/A,,Clear,220,2013-01-08 04:13:00
10:33 PM,23.0,19.4,86,29.96,10.0,SW,3.5,-,N/A,,Clear,230,2013-01-08 04:33:00
10:53 PM,24.8,21.2,86,29.96,10.0,WSW,3.5,-,N/A,,Clear,250,2013-01-08 04:53:00
11:13 PM,23.0,21.2,93,29.96,10.0,SW,3.5,-,N/A,,Clear,220,2013-01-08 05:13:00
11:33 PM,23.0,19.4,86,29.95,10.0,WSW,3.5,-,N/A,,Clear,240,2013-01-08 05:33:00
11:53 PM,23.0,19.4,86,29.95,10.0,WSW,4.6,-,N/A,,Clear,250,2013-01-08 05:53:00